Weather History for Lexington, NE

Change the Weather History Date:

Monday, September 9, 2013

  Actual Average Record
Temperature  
Mean Temperature 84 °F -  
Max Temperature 99 °F 79 °F 99 °F (2013)
Min Temperature 68 °F 52 °F 39 °F (2001)
Cooling Degree Days 18    
Growing Degree Days 34 (Base 50)    
Moisture  
Dew Point 53 °F    
Average Humidity 37    
Maximum Humidity 69    
Minimum Humidity 14    
Precipitation  
Precipitation 0.00 in - - ()
Sea Level Pressure  
Sea Level Pressure 29.82 in    
Wind  
Wind Speed 11 mph (South)    
Max Wind Speed 23 mph    
Max Gust Speed 28 mph    
Visibility 10 miles    
Events      
Averages and records for this station are not official NWS values.
T = Trace of Precipitation, MM = Missing Value Source: NWS Daily Summary

Daily Weather History Graph

Daily Weather History Graph

Search for Another Location

Airport:

Trip Planner

Search our weather history database for the weather conditions in past years. The results will help you decide how hot, cold, wet, or windy it might be!

Date:

Astronomy

Sep. 09, 2013 Rise Set
Actual Time 7:14 AM CDT 7:57 PM CDT
Civil Twilight 6:46 AM CDT 8:25 PM CDT
Nautical Twilight 6:13 AM CDT 8:58 PM CDT
Astronomical Twilight 5:39 AM CDT 9:31 PM CDT
Moon 11:39 AM CDT (9/9) 10:13 PM CDT (9/9)
Length of Visible Light 13h 38m
Length of Day
12h 43m
Waxing Crescent, 19% of the Moon is Illuminated
Sep 9
Waxing Crescent
Sep 12
First Quarter
Sep 19
Full
Sep 26
Last Quarter
Oct 4
New

Hourly Weather History & Observations

Time (CDT) Temp. Heat Index Dew Point Humidity Pressure Visibility Wind Dir Wind Speed Gust Speed Precip Events Conditions
12:15 AM 79.0 °F - 54.7 °F 43% 29.84 in 10.0 mi South 10.4 mph - N/A   Clear
12:35 AM 80.1 °F 80.1 °F 54.7 °F 41% 29.84 in 10.0 mi South 12.7 mph - N/A   Clear
12:55 AM 80.6 °F 80.4 °F 55.0 °F 41% 29.84 in 10.0 mi South 11.5 mph - N/A   Clear
1:15 AM 79.9 °F - 55.4 °F 43% 29.84 in 10.0 mi SSW 12.7 mph 17.3 mph N/A   Clear
1:35 AM 79.5 °F - 55.8 °F 44% 29.84 in 10.0 mi South 11.5 mph - N/A   Clear
1:55 AM 79.0 °F - 55.9 °F 45% 29.84 in 10.0 mi South 9.2 mph - N/A   Clear
2:15 AM 79.0 °F - 55.8 °F 45% 29.83 in 10.0 mi South 12.7 mph - N/A   Clear
2:35 AM 79.2 °F - 55.6 °F 44% 29.83 in 10.0 mi South 11.5 mph - N/A   Clear
2:55 AM 78.8 °F - 55.8 °F 45% 29.83 in 10.0 mi South 10.4 mph - N/A   Clear
3:15 AM 78.6 °F - 55.6 °F 45% 29.83 in 10.0 mi SSW 11.5 mph - N/A   Clear
3:35 AM 77.9 °F - 55.6 °F 46% 29.83 in 10.0 mi South 11.5 mph 16.1 mph N/A   Clear
3:55 AM 77.5 °F - 55.8 °F 47% 29.83 in 10.0 mi South 11.5 mph - N/A   Clear
4:15 AM 77.2 °F - 55.6 °F 47% 29.83 in 10.0 mi South 10.4 mph - N/A   Clear
4:35 AM 77.5 °F - 55.6 °F 47% 29.82 in 10.0 mi SSW 9.2 mph 18.4 mph N/A   Clear
4:55 AM 77.9 °F - 55.4 °F 46% 29.82 in 10.0 mi SSW 12.7 mph 17.3 mph N/A   Clear
5:15 AM 77.9 °F - 55.0 °F 45% 29.82 in 10.0 mi SSW 12.7 mph 17.3 mph N/A   Clear
5:35 AM 77.5 °F - 55.0 °F 46% 29.82 in 10.0 mi SSW 12.7 mph - N/A   Clear
5:55 AM 76.5 °F - 55.0 °F 47% 29.82 in 10.0 mi SSW 12.7 mph - N/A   Clear
6:15 AM 75.2 °F - 55.2 °F 50% 29.82 in 10.0 mi SSW 10.4 mph - N/A   Clear
6:35 AM 75.0 °F - 55.0 °F 50% 29.82 in 10.0 mi SSW 10.4 mph - N/A   Clear
6:55 AM 74.5 °F - 55.0 °F 51% 29.83 in 10.0 mi SSW 10.4 mph - N/A   Clear
7:15 AM 73.6 °F - 55.4 °F 53% 29.84 in 10.0 mi SSW 5.8 mph - N/A   Clear
7:35 AM 70.2 °F - 56.1 °F 61% 29.84 in 10.0 mi Calm Calm - N/A   Clear
7:55 AM 68.4 °F - 57.7 °F 69% 29.85 in 10.0 mi Calm Calm - N/A   Clear
8:15 AM 69.6 °F - 59.2 °F 69% 29.85 in 10.0 mi North 3.5 mph - N/A   Clear
8:35 AM 74.8 °F - 57.2 °F 54% 29.85 in 10.0 mi Calm Calm - N/A   Clear
8:55 AM 77.7 °F - 56.3 °F 48% 29.85 in 10.0 mi SSW 5.8 mph - N/A   Clear
9:15 AM 79.7 °F - 56.7 °F 45% 29.85 in 10.0 mi West 3.5 mph - N/A   Clear
9:35 AM 81.0 °F 80.9 °F 56.5 °F 43% 29.85 in 10.0 mi SSW 5.8 mph - N/A   Clear
9:55 AM 83.3 °F 82.6 °F 56.3 °F 40% 29.85 in 10.0 mi SSW 5.8 mph - N/A   Clear
10:15 AM 86.0 °F 84.7 °F 55.8 °F 36% 29.85 in 10.0 mi SSW 12.7 mph 16.1 mph N/A   Clear
10:35 AM 87.1 °F 85.5 °F 55.2 °F 34% 29.85 in 10.0 mi SSW 12.7 mph 17.3 mph N/A   Clear
10:55 AM 87.6 °F 86.1 °F 55.9 °F 34% 29.85 in 10.0 mi SSW 10.4 mph 19.6 mph N/A   Clear
11:15 AM 88.7 °F 86.9 °F 55.6 °F 32% 29.85 in 10.0 mi SSW 12.7 mph - N/A   Clear
11:35 AM 90.1 °F 88.3 °F 55.9 °F 31% 29.85 in 10.0 mi SW 12.7 mph - N/A   Clear
11:55 AM 91.6 °F 89.8 °F 55.6 °F 30% 29.84 in 10.0 mi SSW 12.7 mph 20.7 mph N/A   Clear
12:15 PM 91.9 °F 90.0 °F 55.4 °F 29% 29.85 in 10.0 mi SSW 15.0 mph 23.0 mph N/A   Clear
12:35 PM 93.0 °F 90.8 °F 54.9 °F 27% 29.84 in 10.0 mi SSW 15.0 mph 21.9 mph N/A   Clear
12:55 PM 94.1 °F 92.2 °F 55.2 °F 27% 29.84 in 10.0 mi South 15.0 mph 18.4 mph N/A   Clear
1:15 PM 94.8 °F 92.8 °F 55.0 °F 26% 29.84 in 10.0 mi South 12.7 mph 19.6 mph N/A   Clear
1:35 PM 95.2 °F 93.0 °F 54.3 °F 25% 29.83 in 10.0 mi SSW 16.1 mph 20.7 mph N/A   Clear
1:55 PM 95.9 °F 93.6 °F 53.6 °F 24% 29.83 in 10.0 mi SW 13.8 mph 26.5 mph N/A   Clear
2:15 PM 97.2 °F 94.9 °F 53.2 °F 23% 29.82 in 10.0 mi SW 12.7 mph 16.1 mph N/A   Clear
2:55 PM 99.1 °F - 45.1 °F 16% 29.80 in 10.0 mi South 20.7 mph 25.3 mph N/A   Clear
3:15 PM 99.0 °F - 44.6 °F 16% 29.79 in 10.0 mi South 17.3 mph 25.3 mph N/A   Clear
3:35 PM 99.5 °F - 45.0 °F 16% 29.79 in 10.0 mi SSW 15.0 mph 26.5 mph N/A   Clear
3:55 PM 98.6 °F - 42.6 °F 15% 29.78 in 10.0 mi SSE 23.0 mph 27.6 mph N/A   Clear
4:15 PM 98.2 °F - 41.4 °F 14% 29.78 in 10.0 mi South 16.1 mph 23.0 mph N/A   Clear
4:35 PM 98.4 °F - 41.7 °F 14% 29.78 in 10.0 mi South 16.1 mph 24.2 mph N/A   Clear
4:55 PM 97.5 °F - 43.7 °F 16% 29.78 in 10.0 mi SSE 17.3 mph 24.2 mph N/A   Clear
5:15 PM 97.2 °F - 45.0 °F 17% 29.78 in 10.0 mi SSE 16.1 mph 20.7 mph N/A   Clear
5:35 PM 96.8 °F - 42.6 °F 15% 29.78 in 10.0 mi South 11.5 mph - N/A   Clear
5:55 PM 96.1 °F - 47.1 °F 19% 29.78 in 10.0 mi SSE 13.8 mph - N/A   Clear
6:15 PM 95.0 °F - 49.8 °F 21% 29.78 in 10.0 mi SSE 12.7 mph - N/A   Clear
6:35 PM 94.1 °F - 50.7 °F 23% 29.78 in 10.0 mi SSE 12.7 mph - N/A   Clear
6:55 PM 92.7 °F - 51.8 °F 25% 29.78 in 10.0 mi SSE 12.7 mph - N/A   Clear
7:15 PM 90.9 °F - 52.7 °F 27% 29.78 in 10.0 mi SSE 12.7 mph - N/A   Clear
7:35 PM 88.9 °F 86.7 °F 53.2 °F 30% 29.78 in 10.0 mi SSE 10.4 mph - N/A   Clear
7:55 PM 86.9 °F 84.9 °F 53.6 °F 32% 29.79 in 10.0 mi SSE 10.4 mph - N/A   Clear
8:15 PM 85.5 °F 83.7 °F 53.6 °F 33% 29.79 in 10.0 mi SSE 10.4 mph - N/A   Clear
8:35 PM 84.7 °F 83.1 °F 53.6 °F 34% 29.79 in 10.0 mi SSE 9.2 mph - N/A   Clear
8:55 PM 83.5 °F 82.4 °F 54.5 °F 37% 29.80 in 10.0 mi SE 9.2 mph - N/A   Clear
9:15 PM 83.1 °F 82.1 °F 54.1 °F 37% 29.81 in 10.0 mi SSE 11.5 mph - N/A   Clear
9:35 PM 81.7 °F 81.1 °F 54.7 °F 39% 29.82 in 10.0 mi SSE 10.4 mph - N/A   Clear
9:55 PM 80.6 °F 80.5 °F 55.8 °F 42% 29.83 in 10.0 mi SSE 11.5 mph - N/A   Clear
10:15 PM 79.9 °F - 55.8 °F 43% 29.83 in 10.0 mi SSE 11.5 mph - N/A   Clear
10:35 PM 79.0 °F - 55.4 °F 44% 29.84 in 10.0 mi SSE 11.5 mph - N/A   Clear
10:55 PM 79.5 °F - 54.7 °F 42% 29.85 in 10.0 mi SSE 12.7 mph 17.3 mph N/A   Clear
11:15 PM 80.6 °F 80.4 °F 54.0 °F 40% 29.85 in 10.0 mi South 11.5 mph - N/A   Clear
11:35 PM 80.6 °F 80.4 °F 54.0 °F 40% 29.86 in 10.0 mi South 9.2 mph - N/A   Clear
11:55 PM 81.0 °F 80.5 °F 54.1 °F 39% 29.88 in 10.0 mi South 11.5 mph - N/A   Clear